Time,TemperatureF,DewpointF,PressureIn,WindDirection,WindDirectionDegrees,WindSpeedMPH,WindSpeedGustMPH,Humidity,HourlyPrecipIn,Conditions,Clouds,dailyrainin,SoftwareType,DateUTC
2013-04-16 00:14:00,76.1,71.0,29.97,SE,131,0.0,2.0,83,0.00,,,0.00,weatherlink.com 1.10,2013-04-16 04:14:00,
2013-04-16 00:29:00,75.7,71.0,29.97,SE,131,1.0,2.0,84,0.00,,,0.00,weatherlink.com 1.10,2013-04-16 04:29:00,
2013-04-16 00:44:00,75.5,70.0,29.96,ESE,115,1.0,2.0,84,0.00,,,0.00,weatherlink.com 1.10,2013-04-16 04:44:00,
2013-04-16 00:59:00,75.3,70.0,29.96,SE,145,0.0,2.0,84,0.00,,,0.00,weatherlink.com 1.10,2013-04-16 04:59:00,
2013-04-16 01:14:00,75.0,70.0,29.96,SE,128,0.0,2.0,84,0.00,,,0.00,weatherlink.com 1.10,2013-04-16 05:14:00,
2013-04-16 01:29:00,74.9,70.0,29.96,SE,128,0.0,2.0,85,0.00,,,0.00,weatherlink.com 1.10,2013-04-16 05:29:00,
2013-04-16 01:44:00,74.9,70.0,29.96,SE,133,1.0,2.0,85,0.00,,,0.00,weatherlink.com 1.10,2013-04-16 05:44:00,
2013-04-16 01:59:00,74.6,70.0,29.95,ESE,107,1.0,2.0,85,0.00,,,0.00,weatherlink.com 1.10,2013-04-16 05:59:00,
2013-04-16 02:14:00,74.4,70.0,29.95,SE,134,1.0,1.0,85,0.00,,,0.00,weatherlink.com 1.10,2013-04-16 06:14:00,
2013-04-16 02:29:00,74.1,70.0,29.94,ESE,117,0.0,1.0,86,0.00,,,0.00,weatherlink.com 1.10,2013-04-16 06:29:00,
2013-04-16 02:44:00,73.8,69.0,29.94,ESE,117,0.0,1.0,86,0.00,,,0.00,weatherlink.com 1.10,2013-04-16 06:44:00,
2013-04-16 02:59:00,73.8,69.0,29.94,ESE,115,1.0,2.0,86,0.00,,,0.00,weatherlink.com 1.10,2013-04-16 06:59:00,
2013-04-16 03:14:00,73.5,69.0,29.93,SE,127,1.0,2.0,86,0.00,,,0.00,weatherlink.com 1.10,2013-04-16 07:14:00,
2013-04-16 03:29:00,73.3,69.0,29.93,SE,131,0.0,2.0,87,0.00,,,0.00,weatherlink.com 1.10,2013-04-16 07:29:00,
2013-04-16 03:44:00,73.1,69.0,29.93,SE,134,0.0,2.0,86,0.00,,,0.00,weatherlink.com 1.10,2013-04-16 07:44:00,
2013-04-16 03:59:00,72.8,69.0,29.94,SE,134,0.0,1.0,87,0.00,,,0.00,weatherlink.com 1.10,2013-04-16 07:59:00,
2013-04-16 04:14:00,72.6,69.0,29.94,SE,131,0.0,2.0,87,0.00,,,0.00,weatherlink.com 1.10,2013-04-16 08:14:00,
2013-04-16 04:29:00,72.2,68.0,29.95,SE,133,0.0,1.0,87,0.00,,,0.00,weatherlink.com 1.10,2013-04-16 08:29:00,
2013-04-16 04:44:00,71.8,68.0,29.95,SE,132,0.0,1.0,88,0.00,,,0.00,weatherlink.com 1.10,2013-04-16 08:44:00,
2013-04-16 04:59:00,71.6,68.0,29.95,SE,133,0.0,1.0,88,0.00,,,0.00,weatherlink.com 1.10,2013-04-16 08:59:00,
2013-04-16 05:14:00,71.5,68.0,29.95,SE,132,0.0,1.0,88,0.00,,,0.00,weatherlink.com 1.10,2013-04-16 09:14:00,
2013-04-16 05:29:00,71.5,68.0,29.95,SE,141,0.0,1.0,88,0.00,,,0.00,weatherlink.com 1.10,2013-04-16 09:29:00,
2013-04-16 05:44:00,71.7,68.0,29.96,SE,125,1.0,2.0,88,0.00,,,0.00,weatherlink.com 1.10,2013-04-16 09:44:00,
2013-04-16 05:59:00,71.6,68.0,29.96,SE,125,0.0,1.0,88,0.00,,,0.00,weatherlink.com 1.10,2013-04-16 09:59:00,
2013-04-16 06:14:00,71.5,68.0,29.96,SE,127,0.0,1.0,88,0.00,,,0.00,weatherlink.com 1.10,2013-04-16 10:14:00,
2013-04-16 06:29:00,71.6,68.0,29.96,SE,131,0.0,2.0,89,0.00,,,0.00,weatherlink.com 1.10,2013-04-16 10:29:00,
2013-04-16 06:44:00,73.5,70.0,29.97,SE,131,0.0,1.0,87,0.00,,,0.00,weatherlink.com 1.10,2013-04-16 10:44:00,
2013-04-16 19:48:00,74.7,73.0,29.96,NE,44,1.0,1.0,95,0.23,,,0.96,weatherlink.com 1.10,2013-04-16 23:48:00,
2013-04-16 20:00:00,73.8,72.0,29.97,NE,51,2.0,6.0,93,0.03,,,0.96,weatherlink.com 1.10,2013-04-17 00:00:00,
2013-04-16 20:15:00,72.8,71.0,29.97,WSW,242,0.0,2.0,95,0.11,,,1.07,weatherlink.com 1.10,2013-04-17 00:15:00,
2013-04-16 20:30:00,73.0,71.0,29.97,SW,232,0.0,4.0,94,0.12,,,1.08,weatherlink.com 1.10,2013-04-17 00:30:00,
2013-04-16 20:45:00,72.9,71.0,29.98,ESE,123,0.0,2.0,94,0.12,,,1.08,weatherlink.com 1.10,2013-04-17 00:45:00,
2013-04-16 21:00:00,72.5,71.0,29.98,SE,128,0.0,3.0,94,0.14,,,1.10,weatherlink.com 1.10,2013-04-17 01:00:00,
2013-04-16 21:30:00,72.4,71.0,29.98,SSW,194,0.0,2.0,95,0.03,,,1.11,weatherlink.com 1.10,2013-04-17 01:30:00,
2013-04-16 21:45:00,71.8,70.0,29.98,SE,129,1.0,1.0,94,0.03,,,1.11,weatherlink.com 1.10,2013-04-17 01:45:00,
2013-04-16 22:00:00,71.9,70.0,29.98,SE,129,0.0,1.0,94,0.01,,,1.11,weatherlink.com 1.10,2013-04-17 02:00:00,
2013-04-16 22:15:00,71.8,70.0,29.98,South,185,0.0,0.0,94,0.00,,,1.11,weatherlink.com 1.10,2013-04-17 02:15:00,
2013-04-16 22:30:00,72.1,70.0,29.98,ESE,105,0.0,2.0,94,0.00,,,1.11,weatherlink.com 1.10,2013-04-17 02:30:00,
2013-04-16 22:45:00,72.1,70.0,29.98,SE,141,0.0,1.0,94,0.00,,,1.11,weatherlink.com 1.10,2013-04-17 02:45:00,
2013-04-16 23:00:00,72.1,70.0,29.98,SE,135,0.0,2.0,94,0.00,,,1.11,weatherlink.com 1.10,2013-04-17 03:00:00,
2013-04-16 23:15:00,71.9,70.0,29.98,SSE,150,0.0,2.0,94,0.00,,,1.11,weatherlink.com 1.10,2013-04-17 03:15:00,
2013-04-16 23:30:00,71.7,70.0,29.98,SSE,150,0.0,1.0,94,0.00,,,1.11,weatherlink.com 1.10,2013-04-17 03:30:00,
2013-04-16 23:45:00,71.5,70.0,29.97,SSE,150,0.0,1.0,94,0.00,,,1.11,weatherlink.com 1.10,2013-04-17 03:45:00,